This demonstration page uses our WeatherBlox Daily Observations layout. Learn more.

Left ArrowRight Arrow

39.51506, -84.39828

Hourly Observations for May 4, 2019

Temp ( °F °C ) Dew Point ( °F °C ) Humidity (%) Winds ( mph kmh ) Pressure ( in mb ) Visibility ( mi km ) Precip ( " mm )
12:15 am 00:15 Cloudy with Mist and Fog 59 14.8 57 13.8 94 94 NNW 7 11 29.99 1015 5 8 0.00 0.00
12:35 am 00:35 Cloudy with Mist and Fog 58 14.7 56 13.6 93 93 N 7 11 29.98 1015 5 8 0.00 0.00
12:55 am 00:55 Cloudy with Mist and Fog 58 14.5 56 13.5 94 94 N 6 9 29.97 1015 5 8 0.00 0.00
1:15 am 01:15 Cloudy with Mist and Fog 58 14.5 56 13.6 94 94 N 3 6 29.97 1015 4 6 0.00 0.00
1:35 am 01:35 Cloudy with Mist and Fog 58 14.6 56 13.6 94 94 N 6 9 29.96 1014 4 6 0.00 0.00
1:55 am 01:55 Cloudy with Mist and Fog 58 14.5 56 13.3 93 93 N 8 13 29.95 1014 5 8 0.00 0.00
2:15 am 02:15 Cloudy with Mist and Fog 58 14.4 56 13.1 92 92 N 9 15 29.95 1014 7 11 0.00 0.00
2:35 am 02:35 Cloudy with Mist and Fog 58 14.2 56 13.1 93 93 NNE 8 13 29.95 1014 5 8 0.00 0.00
2:55 am 02:55 Cloudy with Mist and Fog 57 13.9 55 12.8 93 93 N 9 15 29.95 1014 5 8 0.00 0.00
3:15 am 03:15 Cloudy with Mist and Fog 57 13.7 55 12.7 94 94 N 8 13 29.95 1014 7 11 0.00 0.00
3:35 am 03:35 Cloudy with Mist and Fog 56 13.3 55 12.5 95 95 N 7 11 29.95 1014 4 6 0.00 0.00
3:55 am 03:55 Cloudy with Mist and Fog 56 13.2 54 12.4 95 95 N 5 7 29.95 1014 4 6 0.00 0.00
4:15 am 04:15 Cloudy with Mist and Fog 56 13.1 54 12.4 96 96 N 5 7 29.96 1015 4 6 0.00 0.00
4:35 am 04:35 Cloudy with Mist and Fog 56 13.2 54 12.3 94 94 NNE 5 7 29.96 1015 5 8 0.00 0.00
4:55 am 04:55 Cloudy with Mist and Fog 55 13 54 12.1 94 94 NNE 5 7 29.95 1014 5 8 0.00 0.00
5:15 am 05:15 Cloudy with Mist and Fog 55 13 54 12 94 94 NE 3 6 29.95 1014 5 8 0.00 0.00
5:35 am 05:35 Cloudy with Mist and Fog 55 12.9 53 11.9 94 94 Calm 29.95 1014 5 8 0.00 0.00
5:55 am 05:55 Cloudy with Mist and Fog 55 13 53 11.9 93 93 Calm 29.94 1014 5 8 0.00 0.00
6:15 am 06:15 Mostly Cloudy with Mist and Fog 55 12.8 53 11.8 94 94 Calm 29.94 1014 5 8 0.00 0.00
6:35 am 06:35 Cloudy with Mist and Fog 55 12.8 53 11.8 94 94 NNE 3 6 29.94 1014 4 6 0.00 0.00
6:55 am 06:55 Cloudy with Mist and Fog 55 12.7 53 11.8 94 94 NNW 5 7 29.95 1014 4 6 0.00 0.00
7:15 am 07:15 Cloudy with Mist and Fog 55 12.8 53 11.8 94 94 N 6 9 29.96 1015 4 6 0.00 0.00
7:35 am 07:35 Cloudy with Mist and Fog 55 13 53 11.9 93 93 NNW 6 9 29.96 1015 4 6 0.00 0.00
7:55 am 07:55 Cloudy with Mist and Fog 56 13.1 53 11.8 92 92 N 7 11 29.96 1015 5 8 0.00 0.00
8:15 am 08:15 Cloudy with Mist and Fog 55 13 53 11.7 92 92 N 8 13 29.97 1015 5 8 0.00 0.00
8:35 am 08:35 Cloudy with Mist and Fog 56 13.1 53 11.6 91 91 NE 7 11 29.97 1015 5 8 0.00 0.00
8:55 am 08:55 Cloudy with Mist and Fog 56 13.1 53 11.5 90 90 NNE 9 15 29.97 1015 5 8 0.00 0.00
9:15 am 09:15 Cloudy with Mist and Fog 55 12.8 53 11.4 91 91 NNE 6 9 29.97 1015 5 8 0.00 0.00
9:35 am 09:35 Cloudy with Mist and Fog 55 12.7 52 11.2 91 91 NE 12 19 29.97 1015 5 8 0.00 0.00
9:55 am 09:55 Cloudy with Mist and Fog 55 12.6 52 11.2 91 91 NE 10 17 29.96 1015 5 8 0.00 0.00
10:15 am 10:15 Cloudy with Mist and Fog 55 12.8 53 11.4 91 91 NNE 9 15 29.95 1014 5 8 0.00 0.00
10:35 am 10:35 Cloudy with Mist and Fog 55 13 53 11.4 90 90 NNE 8 13 29.97 1015 7 11 0.00 0.00
10:55 am 10:55 Cloudy with Mist and Fog 55 12.7 52 11.1 90 90 N 6 9 29.97 1015 5 8 0.00 0.00
11:15 am 11:15 Cloudy with Mist and Fog 55 12.5 52 11 91 91 NNE 9 15 29.97 1015 5 8 0.00 0.00
11:35 am 11:35 Cloudy with Mist and Fog 55 12.6 52 11 90 90 N 8 13 29.96 1015 5 8 0.00 0.00
11:55 am 11:55 Cloudy with Mist and Fog 55 12.9 52 11.1 89 89 NNE 9 15 29.97 1015 7 11 0.00 0.00
12:15 pm 12:15 Cloudy 56 13.3 52 11.3 88 88 NNE 7 11 29.96 1015 7 11 0.00 0.00
12:35 pm 12:35 Cloudy 56 13.6 52 11.1 85 85 NE 10 17 29.96 1015 10 16 0.00 0.00
12:55 pm 12:55 Cloudy 58 14.2 52 11.3 83 83 NE 7 11 29.95 1014 10 16 0.00 0.00
1:15 pm 13:15 Cloudy 57 14.1 52 11.3 83 83 NE 6 9 29.95 1014 10 16 0.00 0.00
1:35 pm 13:35 Cloudy 58 14.2 52 11.2 82 82 NE 8 13 29.95 1014 10 16 0.00 0.00
1:55 pm 13:55 Cloudy with Light Rain 57 14.1 53 11.6 85 85 NE 6 9 29.94 1014 10 16 0.00 0.00
2:15 pm 14:15 Cloudy with Light Rain 57 13.9 53 11.4 85 85 NNE 9 15 29.95 1014 10 16 0.00 0.00
2:35 pm 14:35 Cloudy with Light Rain 57 14 53 11.8 87 87 NNE 6 9 29.94 1014 7 11 0.00 0.00
2:55 pm 14:55 Cloudy with Light Rain 57 14 54 12.4 90 90 NE 6 9 29.94 1014 4 6 0.02 0.51
3:15 pm 15:15 Cloudy with Light Rain 57 14.1 55 12.6 91 91 ENE 7 11 29.93 1014 7 11 0.02 0.51
3:35 pm 15:35 Cloudy with Light Rain 57 13.9 54 12.4 91 91 NNE 7 11 29.93 1014 7 11 0.03 0.76
3:55 pm 15:55 Cloudy with Light Rain 56 13.4 54 12.1 92 92 NNE 10 17 29.92 1013 7 11 0.03 0.76
4:15 pm 16:15 Cloudy with Light Rain 56 13.3 54 12.1 93 93 NNE 5 7 29.91 1013 7 11 0.01 0.25
4:35 pm 16:35 Cloudy with Light Rain 56 13.4 54 12.3 93 93 NNE 5 7 29.89 1012 10 16 0.02 0.51
4:55 pm 16:55 Cloudy with Light Rain 56 13.6 55 12.5 93 93 NE 7 11 29.89 1012 10 16 0.03 0.76
5:15 pm 17:15 Cloudy with Light Rain 56 13.6 55 12.6 94 94 NNE 3 6 29.89 1012 10 16 0.00 0.00
5:35 pm 17:35 Cloudy with Light Rain 57 13.8 55 12.7 93 93 NNE 10 17 29.89 1012 10 16 0.00 0.00
5:55 pm 17:55 Cloudy 57 14.1 55 12.9 93 93 NNE 8 13 29.89 1012 10 16 0.00 0.00
6:15 pm 18:15 Cloudy 58 14.2 55 12.7 91 91 NE 8 13 29.88 1012 10 16 0.00 0.00
6:35 pm 18:35 Cloudy 58 14.4 55 12.9 91 91 NE 6 9 29.88 1012 10 16 0.00 0.00
6:55 pm 18:55 Cloudy with Light Rain 57 13.8 55 12.5 92 92 NNE 8 13 29.88 1012 10 16 0.00 0.00
7:15 pm 19:15 Cloudy 57 13.7 54 12.3 91 91 NNE 7 11 29.88 1012 10 16 0.00 0.00
7:35 pm 19:35 Cloudy 56 13.5 54 12 91 91 N 9 15 29.88 1012 10 16 0.00 0.00
7:55 pm 19:55 Cloudy 56 13.4 53 11.9 91 91 NNE 8 13 29.88 1012 10 16 0.00 0.00
8:15 pm 20:15 Cloudy 56 13.3 53 11.7 90 90 NNE 8 13 29.88 1012 10 16 0.00 0.00
8:35 pm 20:35 Cloudy 55 13 52 11.3 90 90 NNE 7 11 29.87 1012 10 16 0.00 0.00
8:55 pm 20:55 Cloudy 55 12.8 52 11.2 90 90 NNE 8 13 29.87 1012 10 16 0.00 0.00
9:15 pm 21:15 Cloudy 55 12.8 52 11.3 91 91 NNE 7 11 29.87 1012 10 16 0.00 0.00
9:35 pm 21:35 Cloudy 55 12.8 52 11.2 90 90 N 7 11 29.88 1012 10 16 0.00 0.00
9:55 pm 21:55 Cloudy 55 12.7 52 11.2 91 91 NNE 7 11 29.88 1012 10 16 0.00 0.00
10:15 pm 22:15 Cloudy 55 12.7 52 11 89 89 NNE 8 13 29.88 1012 10 16 0.00 0.00
10:35 pm 22:35 Cloudy 55 12.7 52 10.9 89 89 NNE 8 13 29.89 1012 10 16 0.00 0.00
10:55 pm 22:55 Cloudy 55 12.7 52 10.9 89 89 NNE 8 13 29.89 1012 10 16 0.00 0.00
11:15 pm 23:15 Cloudy 55 12.6 52 10.9 89 89 NNE 7 11 29.88 1012 10 16 0.00 0.00
11:35 pm 23:35 Cloudy 55 12.5 51 10.7 89 89 NNE 7 11 29.89 1012 10 16 0.00 0.00
11:55 pm 23:55 Cloudy 54 12.4 51 10.5 88 88 NNE 8 13 29.88 1012 10 16 0.00 0.00

Powered by AerisWeather